Weather History for Stevens Point, WI

Change the Weather History Date:

Thursday, May 30, 2013

  Actual Average Record
Temperature  
Mean Temperature 70 °F -  
Max Temperature 81 °F 72 °F 90 °F (1953)
Min Temperature 61 °F 50 °F 35 °F (1961)
Cooling Degree Days 5    
Growing Degree Days 20 (Base 50)    
Moisture  
Dew Point 63 °F    
Average Humidity 84    
Maximum Humidity 97    
Minimum Humidity 57    
Precipitation  
Precipitation 0.88 in - - ()
Sea Level Pressure  
Sea Level Pressure 29.77 in    
Wind  
Wind Speed 10 mph (SSE)    
Max Wind Speed 32 mph    
Max Gust Speed 40 mph    
Visibility 10 miles    
Events Rain , Thunderstorm    
Averages and records for this station are not official NWS values.
T = Trace of Precipitation, MM = Missing Value Source: NWS Daily Summary

Daily Weather History Graph

Daily Weather History Graph

Search for Another Location

Airport:

Trip Planner

Search our weather history database for the weather conditions in past years. The results will help you decide how hot, cold, wet, or windy it might be!

Date:

Astronomy

May. 30, 2013 Rise Set
Actual Time 5:17 AM CDT 8:34 PM CDT
Civil Twilight 4:41 AM CDT 9:10 PM CDT
Nautical Twilight 3:55 AM CDT 9:56 PM CDT
Astronomical Twilight 2:58 AM CDT 10:54 PM CDT
Moon 12:26 AM CDT (5/30) 11:35 AM CDT (5/30)
Length of Visible Light 16h 28m
Length of Day
15h 17m
Waning Gibbous, 62% of the Moon is Illuminated
May 30
Waning Gibbous
May 31
Last Quarter
Jun 8
New
Jun 16
First Quarter
Jun 23
Full

Hourly Weather History & Observations

Time (CDT) Temp. Dew Point Humidity Pressure Visibility Wind Dir Wind Speed Gust Speed Precip Events Conditions
12:15 AM 61.0 °F 60.3 °F 97% 29.87 in 10.0 mi SSE 6.9 mph - 0.01 in Rain Light Rain
12:35 AM 61.9 °F 59.9 °F 93% 29.86 in 10.0 mi South 11.5 mph 18.4 mph 0.03 in Rain Rain
12:55 AM 62.6 °F 61.0 °F 94% 29.85 in 10.0 mi South 16.1 mph - 0.06 in Rain Rain
1:15 AM 63.0 °F 61.2 °F 94% 29.84 in 10.0 mi SSE 11.5 mph - 0.01 in Rain Rain
1:35 AM 63.0 °F 61.0 °F 93% 29.84 in 10.0 mi SSE 9.2 mph - 0.03 in Rain Light Rain
1:55 AM 63.0 °F 61.0 °F 93% 29.84 in 10.0 mi SSE 9.2 mph - 0.04 in Rain Light Rain
2:15 AM 63.0 °F 61.0 °F 93% 29.86 in 10.0 mi SSE 8.1 mph - N/A   Mostly Cloudy
2:35 AM 63.0 °F 61.5 °F 95% 29.83 in 7.0 mi SE 8.1 mph - 0.08 in Rain Light Rain
2:55 AM 63.0 °F 61.3 °F 94% 29.83 in 10.0 mi SE 9.2 mph - 0.08 in   Overcast
3:15 AM 63.0 °F 61.7 °F 96% 29.83 in 10.0 mi SSE 6.9 mph - N/A   Overcast
3:35 AM 62.8 °F 61.7 °F 96% 29.83 in 10.0 mi SE 5.8 mph - N/A   Overcast
3:55 AM 62.6 °F 61.2 °F 95% 29.82 in 10.0 mi SE 6.9 mph - N/A   Scattered Clouds
4:15 AM 62.6 °F 61.0 °F 94% 29.82 in 10.0 mi SE 5.8 mph - N/A   Clear
4:35 AM 62.6 °F 60.8 °F 94% 29.81 in 10.0 mi SE 6.9 mph - N/A   Clear
4:55 AM 62.6 °F 60.8 °F 94% 29.81 in 10.0 mi SSE 6.9 mph - N/A   Clear
5:15 AM 62.1 °F 60.6 °F 95% 29.81 in 10.0 mi SSE 6.9 mph - N/A   Clear
5:35 AM 62.1 °F 60.4 °F 94% 29.81 in 10.0 mi SE 6.9 mph - N/A   Clear
5:55 AM 61.9 °F 60.6 °F 96% 29.81 in 10.0 mi SE 6.9 mph - N/A   Clear
6:15 AM 62.1 °F 60.8 °F 96% 29.81 in 10.0 mi SE 5.8 mph - N/A   Clear
6:35 AM 63.3 °F 61.7 °F 94% 29.82 in 10.0 mi SSE 6.9 mph - N/A   Clear
6:55 AM 64.8 °F 62.1 °F 91% 29.81 in 10.0 mi SSE 8.1 mph - N/A   Clear
7:15 AM 66.4 °F 62.8 °F 88% 29.81 in 10.0 mi SSE 9.2 mph - N/A   Clear
7:35 AM 67.3 °F 63.0 °F 86% 29.80 in 10.0 mi SSE 11.5 mph 17.3 mph N/A   Clear
7:55 AM 68.9 °F 63.7 °F 83% 29.81 in 10.0 mi SSE 10.4 mph 16.1 mph N/A   Clear
8:35 AM 71.1 °F 64.2 °F 79% 29.81 in 10.0 mi South 12.7 mph 20.7 mph N/A   Clear
8:55 AM 71.8 °F 64.0 °F 77% 29.81 in 10.0 mi South 15.0 mph 26.5 mph N/A   Scattered Clouds
9:15 AM 72.5 °F 64.4 °F 76% 29.81 in 10.0 mi South 12.7 mph 21.9 mph N/A   Scattered Clouds
9:35 AM 73.2 °F 64.8 °F 75% 29.80 in 10.0 mi South 12.7 mph 20.7 mph N/A   Mostly Cloudy
9:55 AM 74.3 °F 65.1 °F 73% 29.79 in 10.0 mi South 17.3 mph 21.9 mph N/A   Mostly Cloudy
10:15 AM 74.7 °F 65.3 °F 73% 29.80 in 10.0 mi South 15.0 mph 21.9 mph N/A   Overcast
10:35 AM 74.3 °F 65.1 °F 73% 29.80 in 10.0 mi South 17.3 mph 23.0 mph N/A   Overcast
10:55 AM 75.0 °F 65.5 °F 72% 29.80 in 10.0 mi South 11.5 mph 17.3 mph N/A   Overcast
11:15 AM 77.2 °F 65.5 °F 67% 29.78 in 10.0 mi SSE 16.1 mph 19.6 mph N/A   Mostly Cloudy
11:35 AM 77.5 °F 64.6 °F 64% 29.78 in 10.0 mi South 16.1 mph 21.9 mph N/A   Scattered Clouds
11:55 AM 78.8 °F 64.2 °F 61% 29.79 in 10.0 mi South 17.3 mph 23.0 mph N/A   Clear
12:15 PM 78.1 °F 63.9 °F 61% 29.78 in 10.0 mi South 15.0 mph 27.6 mph N/A   Mostly Cloudy
12:35 PM 79.2 °F 64.0 °F 60% 29.77 in 10.0 mi South 17.3 mph 24.2 mph N/A   Mostly Cloudy
12:55 PM 79.2 °F 63.7 °F 59% 29.76 in 10.0 mi SSE 13.8 mph 25.3 mph N/A   Mostly Cloudy
1:15 PM 79.5 °F 63.9 °F 59% 29.74 in 10.0 mi South 18.4 mph 25.3 mph N/A   Scattered Clouds
1:35 PM 79.9 °F 63.5 °F 57% 29.74 in 10.0 mi SSE 15.0 mph 25.3 mph N/A   Mostly Cloudy
1:55 PM 79.7 °F 64.0 °F 59% 29.73 in 10.0 mi SSE 12.7 mph 23.0 mph N/A   Mostly Cloudy
2:15 PM 75.0 °F 64.4 °F 69% 29.76 in 5.0 mi South 32.2 mph 40.3 mph 0.07 in Rain , Thunderstorm Heavy Thunderstorms and Rain
2:35 PM 67.1 °F 64.6 °F 92% 29.75 in 10.0 mi South 9.2 mph - 0.20 in Rain , Thunderstorm Light Thunderstorms and Rain
2:55 PM 67.3 °F 65.3 °F 93% 29.74 in 10.0 mi South 9.2 mph - 0.20 in Rain , Thunderstorm Light Thunderstorms and Rain
3:15 PM 67.1 °F 64.8 °F 92% 29.73 in 10.0 mi SSE 6.9 mph - N/A   Clear
3:35 PM 68.4 °F 64.8 °F 88% 29.73 in 10.0 mi SSE 4.6 mph - N/A   Scattered Clouds
3:55 PM 72.5 °F 66.9 °F 83% 29.73 in 10.0 mi SSE 5.8 mph - N/A   Scattered Clouds
4:15 PM 74.1 °F 66.7 °F 78% 29.72 in 10.0 mi SSE 4.6 mph - N/A   Mostly Cloudy
4:35 PM 73.2 °F 67.1 °F 81% 29.72 in 10.0 mi South 3.5 mph - 0.02 in Thunderstorm Thunderstorm
4:55 PM 68.9 °F 66.4 °F 92% 29.73 in 1.5 mi South 12.7 mph 19.6 mph 0.47 in Rain , Thunderstorm Light Thunderstorms and Rain
5:35 PM 67.5 °F 64.8 °F 91% 29.71 in 10.0 mi South 6.9 mph - 0.02 in   Light Drizzle
5:55 PM 66.2 °F 63.7 °F 92% 29.71 in 10.0 mi South 8.1 mph - 0.02 in   Clear
6:15 PM 67.1 °F 63.5 °F 88% 29.70 in 10.0 mi South 9.2 mph - N/A   Scattered Clouds
6:35 PM 68.5 °F 64.0 °F 85% 29.71 in 10.0 mi South 6.9 mph - N/A   Clear
6:55 PM 68.0 °F 64.4 °F 88% 29.71 in 10.0 mi SE 5.8 mph - N/A   Clear
7:15 PM 68.0 °F 64.8 °F 89% 29.73 in 10.0 mi SSE 4.6 mph - N/A   Clear
7:35 PM 67.6 °F 64.6 °F 90% 29.72 in 10.0 mi SSE 3.5 mph - N/A   Scattered Clouds
7:55 PM 67.1 °F 64.9 °F 93% 29.72 in 10.0 mi SE 3.5 mph - N/A   Scattered Clouds
8:15 PM 67.1 °F 64.8 °F 92% 29.71 in 10.0 mi SE 5.8 mph - N/A   Mostly Cloudy
8:35 PM 68.0 °F 64.8 °F 89% 29.71 in 10.0 mi SSE 5.8 mph - N/A   Mostly Cloudy
8:55 PM 68.7 °F 64.8 °F 87% 29.70 in 10.0 mi SE 5.8 mph - N/A   Overcast
9:15 PM 69.1 °F 64.8 °F 86% 29.70 in 10.0 mi SE 9.2 mph - N/A Rain Rain
9:35 PM 68.2 °F 65.3 °F 90% 29.70 in 10.0 mi SE 10.4 mph - 0.01 in Rain Light Rain
9:55 PM 68.0 °F 65.1 °F 90% 29.71 in 10.0 mi SSE 10.4 mph 16.1 mph 0.01 in   Mostly Cloudy
10:15 PM 68.0 °F 64.6 °F 89% 29.72 in 10.0 mi South 13.8 mph 20.7 mph N/A   Mostly Cloudy
10:35 PM 67.6 °F 63.1 °F 85% 29.72 in 10.0 mi SSE 13.8 mph 21.9 mph N/A   Scattered Clouds
10:55 PM 67.1 °F 62.2 °F 84% 29.73 in 10.0 mi SSE 12.7 mph 18.4 mph N/A   Mostly Cloudy
11:15 PM 65.8 °F 60.8 °F 84% 29.73 in 10.0 mi SSE 12.7 mph 18.4 mph N/A   Overcast
11:35 PM 65.3 °F 60.1 °F 83% 29.74 in 10.0 mi South 13.8 mph 19.6 mph N/A   Overcast
11:55 PM 64.4 °F 59.4 °F 84% 29.73 in 10.0 mi SSE 11.5 mph 23.0 mph N/A   Mostly Cloudy